User: anonymous   Login
Location: Unspecified
(0.0000°N, 0.0000°E)
Time: 13:12:23
(UTC+00:00)
Language:

AOXIANG-1 - Orbit

View from above orbital plane
View from above orbital plane
View from above satellite
View from above satellite

Ground track
Ground track

The orbit data is extracted from the following two-line orbital elements,

1 42735U 98067MQ  18348.06595001  .00035454  00000-0  22608-3 0  9993
2 42735  51.6296 160.4477 0005746 189.6582 263.8538 15.76021569 89994
Epoch (UTC): 14 December 2018 01:34:58
Eccentricity: 0.0005746
inclination: 51.6296°
perigee height: 338 km
apogee height: 345 km
right ascension of ascending node: 160.4477°
argument of perigee: 189.6582°
revolutions per day: 15.76021569
mean anomaly at epoch: 263.8538°
orbit number at epoch: 8999

The dashed part of the orbit path shows where the satellite is in the earth's shadow,  

DLR